Location: Rancho Del Sol Observatory
(38.7214°N, 120.6350°W)
Time: 00:23:38
(UTC-07:00)

Daily predictions for brighter satellites

Satellite Brightness Start Highest point End
(mag) Time Altitude Azimuth Time Altitude Azimuth Time Altitude Azimuth
Cosmos 1076 Rocket 4.4 00:09:36 46° N 00:09:36 46° N 00:12:42 10° N
Lacrosse 5 rocket 4.4 00:08:06 10° N 00:09:40 12° NNE 00:11:15 10° NE
Atlas Centaur 2 4.4 00:05:04 10° WSW 00:08:05 20° SW 00:08:05 20° SW
Cosmos 1417 Rocket 4.3 00:05:55 10° N 00:12:04 80° W 00:12:29 76° SW
NOSS 3-3 (A) 4.4 00:06:19 10° NW 00:13:50 80° WSW 00:15:16 63° S
NOSS 3-3 (C) 4.4 00:06:25 10° NW 00:13:57 81° WSW 00:15:23 63° SSE
Cosmos 2221 3.7 00:11:35 10° NNW 00:14:41 39° NW 00:14:41 39° NW
Terra 3.9 00:15:41 17° W 00:15:44 17° W 00:18:52 10° NW
Cosmos 1553 Rocket 3.9 00:10:18 10° N 00:16:43 83° E 00:17:12 76° SE
Cosmos 841 Rocket 4.1 00:13:04 10° N 00:18:02 48° ENE 00:18:02 48° ENE
Cosmos 1766 Rocket 4.4 00:20:34 49° NNW 00:20:34 49° NNW 00:24:06 10° N
Cosmos 724 4.4 00:20:39 62° ENE 00:20:39 62° ENE 00:25:47 10° NE
NOSS 3-2 (C) 4.0 00:17:51 34° WSW 00:20:19 55° NW 00:26:51 10° NNE
Cosmos 1503 Rocket 4.5 00:25:45 53° ENE 00:25:45 53° ENE 00:30:04 10° NNE
CZ-2C R/B 4.2 00:20:56 10° NE 00:24:34 24° E 00:24:34 24° E
Cosmos 1867 3.9 00:29:57 59° WNW 00:30:16 60° WNW 00:35:42 10° NNE
Meteor 1-24 Rocket 4.4 00:34:50 44° W 00:35:35 46° WNW 00:41:15 10° N
H-2A R/B 4.4 00:35:36 11° W 00:35:59 11° W 00:37:05 10° WNW
Meteor 2-20 4.4 00:36:05 75° E 00:36:08 75° E 00:42:18 10° N
In-Cosmos 22 4.2 00:38:35 76° NE 00:38:35 76° NE 00:43:54 10° N
Cosmos 2266 Rocket 3.9 00:38:19 73° ESE 00:38:33 74° E 00:44:58 10° N
Lacrosse 5 2.7 00:36:46 10° NNW 00:41:36 43° NE 00:41:59 42° NE
S3M 4.2 00:40:00 10° NNW 00:46:02 56° W 00:46:14 56° W
Cosmos 2315 Rocket 4.4 00:40:37 10° N 00:46:45 51° E 00:47:13 50° E
Helios 1A Rocket 4.4 00:43:26 10° NNE 00:45:52 35° NNE 00:45:52 35° NNE
Cosmos 540 Rocket 4.1 01:03:50 10° N 01:08:40 50° ENE 01:08:40 50° ENE
Cosmos 2151 4.3 01:10:36 37° NNE 01:10:36 37° NNE 01:13:17 10° NNE
CZ-2C R/B 4.0 01:12:05 42° E 01:12:40 44° ENE 01:18:06 10° N
CZ-4B R/B 4.2 01:18:52 16° NW 01:18:52 16° NW 01:19:52 10° NW
Cosmos 1980 Rocket 2.5 01:13:10 10° NNW 01:18:44 59° ENE 01:19:01 58° ENE
ISS -0.2 01:17:11 10° NNW 01:18:38 16° N 01:18:38 16° N
Cosmos 1151 Rocket 4.3 01:18:20 10° NNW 01:21:01 37° NNW 01:21:01 37° NNW
Cosmos 1726 4.3 01:27:11 10° NNE 01:29:07 23° NE 01:29:07 23° NE
Aureole 1 Rocket 3.7 01:29:37 10° NNW 01:34:32 78° WNW 01:34:32 78° WNW
Cosmos 1697 Rocket 3.1 01:31:43 10° NNW 01:36:28 53° WNW 01:36:28 53° WNW
Meteor 1-11 4.3 01:39:34 66° E 01:39:37 66° E 01:45:24 10° NNE
ATLAS 5 CENTAUR R/B 3.6 01:42:01 22° E 01:42:01 22° E 01:44:51 10° ENE
Cosmos 2082 Rocket 3.6 01:40:17 26° W 01:41:28 29° WNW 01:46:21 10° N
Cosmos 1833 Rocket 3.7 01:40:46 35° WNW 01:41:30 36° WNW 01:46:41 10° N
Lacrosse 5 rocket 2.4 01:45:36 10° NNW 01:49:21 47° NNE 01:49:21 47° NNE
Sich 1 3.8 01:53:14 52° NNE 01:53:14 52° NNE 01:56:42 10° N
CENTAUR R/B 3.1 01:51:01 42° W 01:52:33 51° NW 01:59:13 10° NNE
ASTEX 1 3.5 01:51:13 10° N 01:55:41 72° N 01:55:41 72° N
Cosmos 968 Rocket 3.5 01:59:56 77° NNE 01:59:56 77° NNE 02:04:44 10° NNE
CZ-2C R/B 3.5 02:00:42 10° N 02:05:46 39° WNW 02:06:06 38° WNW
Cosmos 371 Rocket 3.4 02:07:18 10° NNW 02:11:31 67° NNW 02:11:31 67° NNW
Cosmos 1386 Rocket 4.4 02:12:24 64° SSE 02:13:20 78° E 02:19:28 10° N
Cosmos 2058 4.4 02:18:03 28° NW 02:18:03 28° NW 02:20:46 10° NNW
Cosmos 2360 4.2 02:11:58 10° NNW 02:17:26 64° W 02:17:26 64° W
Cosmos 1862 Rocket 4.2 02:17:55 10° N 02:22:16 49° E 02:22:23 49° E
Lacrosse 5 3.9 02:20:01 10° WNW 02:21:07 15° WNW 02:21:07 15° WNW
SL-16 R/B 2.2 02:20:37 10° NNW 02:26:19 79° ENE 02:27:32 56° SE
Meteor 1-4 Rocket 3.6 02:25:31 10° N 02:28:26 48° NNE 02:28:26 48° NNE
Cosmos 1745 Rocket 4.2 02:30:10 50° WSW 02:31:08 55° W 02:37:21 10° N
Cosmos 2322 Rocket 2.0 02:29:57 10° NNW 02:35:35 81° WSW 02:36:17 68° S
Nadezhda 1 Rocket 3.9 02:31:07 10° NNW 02:37:10 62° W 02:37:58 56° SW
BREEZE-M DEB (TANK) 2.7 02:39:40 57° NNE 02:39:40 57° NNE 02:44:33 10° NE
CZ-2D R/B 4.5 02:36:33 10° ENE 02:39:13 14° E 02:41:53 10° ESE
Meteor 2-10 4.0 02:36:04 10° NNW 02:41:23 80° W 02:42:05 67° SSW
Cosmos 1709 Rocket 4.0 02:40:35 51° S 02:42:19 81° E 02:48:35 10° N
ERS-2 2.7 02:41:15 10° NNE 02:44:20 58° NNE 02:44:20 58° NNE
Cosmos 1271 Rocket 3.5 02:41:50 10° NNW 02:44:34 45° NNW 02:44:34 45° NNW
Cosmos 923 Rocket 3.9 02:40:41 10° NNW 02:45:57 86° ENE 02:47:02 58° SSE
Cosmos 1703 4.4 02:49:04 34° NW 02:49:04 34° NW 02:51:59 10° N
Cosmos 773 Rocket 3.8 02:44:18 10° NNW 02:49:25 70° WSW 02:49:45 68° SW
Cosmos 1777 Rocket 4.3 02:49:21 49° W 02:50:01 53° WNW 02:55:12 10° N
AQUA 3.9 02:45:45 10° NNE 02:50:29 65° ESE 02:51:12 56° SE
Cosmos 1869 3.4 02:47:20 10° N 02:51:08 75° NE 02:51:08 75° NE
SL-16 R/B 4.3 02:46:24 10° ESE 02:51:35 28° ENE 02:56:47 10° N
Cosmos 1680 Rocket 3.5 02:48:16 10° NNW 02:53:30 77° ENE 02:55:18 42° SSE
NPP 3.5 02:51:23 10° NNE 02:56:48 90° WNW 02:58:03 55° SSW
Cosmos 2221 Rocket 4.5 02:54:50 10° N 02:59:12 46° E 03:01:02 30° SE
Cosmos 2292 Rocket 3.3 03:02:01 65° NNE 03:02:01 65° NNE 03:05:25 10° N
Cosmos 1980 Rocket 4.0 02:58:34 10° WNW 03:00:45 16° W 03:00:45 16° W
Cosmos 2360 Rocket 2.6 02:57:55 10° NNW 03:03:31 62° ENE 03:08:30 13° SE
BREEZE-M DEB (TANK) 4.0 03:01:44 10° NW 03:05:24 84° NE 03:19:43 10° SE
CBERS-1 3.9 03:02:08 10° NNE 03:07:17 87° WNW 03:08:34 52° SSW
BREEZE-M DEB (TANK) 4.2 03:06:32 42° SW 03:08:34 90° WNW 03:26:00 10° ENE
H-2A R/B 2.8 03:11:01 42° SSW 03:12:26 51° S 03:32:10 10° ESE
ARIANE 5 R/B 3.4 03:08:33 10° NNE 03:13:20 41° E 03:15:49 24° SSE
USA 215 3.2 03:07:27 10° NE 03:14:02 83° SE 03:16:55 37° SW
IRS-1C 4.0 03:10:00 10° NNE 03:15:22 90° WSW 03:17:12 43° SSW
SAR-Lupe-3 4.4 03:15:54 83° ESE 03:16:00 85° ENE 03:19:34 10° NNW
Cosmos 1703 Rocket 3.5 03:13:42 10° N 03:18:04 79° E 03:19:22 45° SSE
Resurs 1-4 Rocket 3.4 03:13:33 10° NNE 03:18:21 33° E 03:21:58 16° SSE
Cosmos 1898 Rocket 3.8 03:18:12 35° SSE 03:20:12 59° ESE 03:25:18 10° NNE
Cosmos 1937 Rocket 4.4 03:19:13 25° SSE 03:21:50 43° ESE 03:26:49 10° NNE
IRS-1D 4.3 03:18:39 10° NNE 03:23:47 47° E 03:26:52 22° SSE
ATLAS 5 CENTAUR R/B 2.7 03:23:33 31° W 03:25:13 41° NW 03:30:11 10° NNE
Cosmos 2219 3.3 03:23:13 36° S 03:25:39 74° ESE 03:31:24 10° NNE
Cosmos 1455 3.6 03:22:37 10° NNW 03:25:04 26° WNW 03:25:04 26° WNW
Cosmos 1626 3.6 03:27:48 25° WNW 03:27:48 25° WNW 03:30:40 10° NNW
SL-08 R/B 3.6 03:27:00 43° SW 03:27:50 48° W 03:32:36 10° NNW
Okean 1-7 3.4 03:24:26 10° N 03:28:47 62° E 03:31:15 24° SSE
Cosmos 2322 3.6 03:23:10 10° NNW 03:28:55 84° WSW 03:33:40 15° SSE
Cosmos 1933 3.4 03:32:30 10° NNW 03:36:27 58° W 03:37:09 49° SW
SL-08 ROCKET BODY 4.5 03:34:05 24° S 03:37:55 79° E 03:44:05 10° N
OAO 3 Rocket 3.7 03:41:51 35° SSW 03:41:51 35° SSW 03:45:56 10° SE
ADEOS 3.8 03:38:49 10° N 03:43:56 56° WNW 03:46:12 31° SW
USA 161 2.9 03:45:51 23° NW 03:45:51 23° NW 03:47:00 10° NNW
Meteor 1-26 Rocket 4.1 03:39:50 10° N 03:45:24 89° E 03:50:07 15° S
Cosmos 2150 Rocket 4.0 03:44:41 32° SSW 03:47:12 74° WNW 03:52:37 10° NNE
CZ-3 Stage 3 3.3 03:39:20 10° W 03:49:13 36° SSW 03:52:27 10° SE
Cosmos 1892 4.1 03:46:35 14° SSE 03:49:30 35° E 03:53:03 10° NNE
Cosmos 2333 Rocket 4.3 03:47:38 10° N 03:52:34 29° ENE 03:57:30 10° ESE
NOSS 3-1 (C) 4.3 03:48:57 16° S 03:53:05 40° ESE 03:58:54 10° NE
ATLAS CENTAUR R/B 1.4 03:50:47 10° NNW 03:55:26 82° WSW 03:59:39 10° SSE
GPS 2-05 Rocket1 3.3 03:57:03 36° S 03:57:03 36° S 03:59:51 10° ESE
Nadezhda 3 Rocket 4.5 03:51:55 10° N 03:58:00 60° E 04:04:03 10° SSE
Cosmos 1610 Rocket 4.5 03:57:07 19° S 04:01:49 80° W 04:08:06 10° N
Cosmos 2154 Rocket 4.2 03:56:58 12° S 04:02:53 74° E 04:09:14 10° N
COSMOS 2428 2.7 03:57:43 10° NNW 04:03:25 88° WSW 04:09:06 10° SSE
AVUM R/B 2.2 04:07:27 64° SE 04:07:33 66° ESE 04:09:39 10° NNE
SL-16 R/B 4.0 04:07:22 10° WNW 04:09:21 12° W 04:09:21 12° W
Cosmos 2074 Rocket 4.4 04:06:26 22° SW 04:10:13 46° WNW 04:16:13 10° N
Cosmos 2237 Rocket 3.9 04:07:15 10° N 04:12:30 36° ENE 04:17:42 10° SE
UNK 3.6 04:08:33 11° S 04:12:55 69° WSW 04:17:30 10° NNW
Cosmos 292 Rocket 3.7 04:10:48 10° NNW 04:15:36 76° WSW 04:20:21 10° SSE
Okean O Rocket 2.3 04:11:33 10° NNE 04:15:52 51° E 04:20:08 10° S
MTI 3.8 04:13:58 15° S 04:16:38 71° WSW 04:20:00 10° NNW
Cosmos 990 Rocket 3.9 04:15:18 18° SSW 04:19:10 79° WNW 04:24:21 10° NNE
CZ-2D R/B 2.2 04:14:29 10° N 04:19:43 67° WNW 04:24:03 16° SSW
UNKNOWN OBJECT B 2.7 04:16:24 10° N 04:20:16 79° WNW 04:23:17 17° SSW
USA 229 DEB 4.3 04:15:49 17° WSW 04:20:56 48° NW 04:27:42 10° NNE
USA 229 4.2 04:15:55 17° WSW 04:21:03 49° NW 04:27:48 10° NNE
CZ-2D R/B 3.5 04:17:26 10° NNE 04:21:33 74° ESE 04:25:18 12° S
Cosmos 2219 Rocket 2.6 04:17:44 10° NNW 04:23:19 66° ENE 04:28:51 10° SSE
GPS 2-04 Rocket1 4.4 04:22:23 13° S 04:23:36 16° SSE 04:25:45 10° ESE
SME Rocket 3.6 04:18:06 10° SSE 04:24:30 89° NE 04:28:55 10° NNW
Cosmos 2237 4.3 04:20:07 10° NNW 04:25:43 55° WSW 04:31:15 10° S
GP-B 4.4 04:21:45 10° NNE 04:25:56 40° E 04:30:06 10° SSE
MOS 1-B 4.4 04:20:34 10° N 04:26:17 64° WNW 04:31:24 13° SSW
Meteor 2-10 Rocket 3.5 04:23:17 10° N 04:28:25 88° E 04:33:42 10° S
SL-24 DEB 4.2 04:24:19 10° N 04:28:57 71° W 04:33:31 10° SSW
FALCON 9 R/B 1.2 04:31:38 23° SSW 04:32:06 25° S 04:34:12 10° SE
SL-16 R/B 2.9 04:28:58 10° S 04:34:55 45° W 04:40:55 10° NNW
Cosmos 220 Rocket 4.3 04:33:30 16° SW 04:36:40 49° WNW 04:40:52 10° N
Intercosmos 24 Rocket 4.3 04:34:11 10° S 04:37:55 73° E 04:41:29 10° N
NOSS 3-1 (A) 3.6 04:35:23 10° SSW 04:41:07 71° ESE 04:47:31 10° NE
Meteor 2-3 Rocket 4.5 04:39:26 13° SW 04:44:08 37° WNW 04:49:31 10° N
SL-16 R/B 4.4 04:39:25 10° N 04:44:22 30° ENE 04:49:17 10° ESE
Iridium 4 Rocket 3.7 04:41:28 10° N 04:45:37 56° E 04:49:41 10° SSE
Cosmos 2360 Rocket 3.7 04:43:29 10° WNW 04:46:55 17° W 04:50:08 11° SW
GOES 2 Rocket 4.4 04:44:46 13° SW 04:48:02 23° S 04:51:31 10° SE
Meteor 2-6 Rocket 4.2 04:43:39 10° N 04:49:09 85° W 04:54:47 10° S
BREEZE-M DEB (TANK) 3.8 04:43:51 10° WNW 04:49:35 49° NNE 04:52:23 10° E
Okean-O 3.9 04:45:57 10° NNE 04:50:10 41° E 04:54:20 10° S
DELTA 2 R/B (1) 3.8 04:45:23 12° WSW 04:50:31 64° SSE 04:56:04 10° E
Cosmos 2227 Rocket 2.2 04:46:00 10° SSW 04:51:38 85° WNW 04:57:20 10° NNE
ARIANE 5 R/B 3.9 04:48:19 10° NNW 04:52:09 22° WNW 04:55:58 10° WSW
Cosmos 1733 Rocket 3.8 04:49:34 10° SW 04:53:30 36° WNW 04:57:33 10° N
Cosmos 1408 3.7 04:51:38 10° SSE 04:55:10 46° E 04:58:45 10° NNE
Coronas F rocket 1.6 04:52:39 10° SSW 04:55:18 46° W 04:57:58 10° N
Meteor 1-27 Rocket 4.1 04:50:15 10° N 04:56:13 79° E 05:02:08 10° SSE
USA 215 4.5 04:50:53 10° NNE 04:56:35 33° NNW 05:02:17 10° W
Resurs 1-4 Rocket 3.2 04:53:32 10° N 04:58:03 29° WNW 05:02:35 10° SW
Cosmos 1782 Rocket 4.1 04:54:44 10° S 04:59:01 62° E 05:03:19 10° NNE
Cosmos 1606 2.8 04:56:25 10° N 05:00:14 80° E 05:04:01 10° S
Abrixas 2.8 04:57:22 10° NW 05:00:28 73° NNE 05:03:32 10° ESE
Cosmos 2218 Rocket 4.1 04:54:46 10° S 05:00:53 81° E 05:07:04 10° N
PSLV R/B 4.3 04:57:49 10° N 05:01:39 45° WNW 05:05:32 10° SSW
CZ-4B R/B 3.3 04:57:05 10° N 05:02:33 70° WNW 05:08:06 10° SSW
ATLAS 2AS CENTAUR R/B 3.9 04:58:20 10° S 05:05:16 47° ESE 05:12:47 10° NE
Thor Agena Rocket 3.7 05:01:40 10° S 05:06:52 58° WSW 05:12:05 10° NNW
Cosmos 1125 Rocket 3.6 05:02:21 10° SSW 05:07:35 68° WNW 05:12:54 10° NNE
BREEZE-M DEB (TANK) 3.6 05:06:20 10° WSW 05:14:38 44° NW 05:17:36 10° NE
